EHI
3 3 2 3 2 1 0 0 0 0 0 0 0 0 0 0 0 1 1 1 1 1 2 1 0 0 0 0 0 1 1 1 1 1 1 0 0 0 0 0 0 0 0
3 3 3 3 3 1 0 0 0 0 0 0 0 0 0 0 1 1 1 1 1 1 2 1 0 0 0 0 1 2 2 2 2 2 2 1 0 0 0 0 0 0 0
4 3 3 3 3 2 1 1 0 0 0 0 0 0 0 0 1 1 1 1 1 0 1 2 1 0 0 0 2 2 2 1 1 2 2 2 0 0 0 0 0 0 0
6 5 4 3 3 3 3 2 1 0 0 0 0 0 0 0 0 0 1 1 0 0 0 1 0 0 0 0 1 2 2 1 1 1 1 1 0 0 0 0 0 0 0
8 8 7 5 5 4 4 3 2 1 0 0 0 0 0 0 0 0 0 0 0 0 0 0 0 0 0 0 1 3 2 1 1 0 0 0 0 0 0 0 0 0 0
7 8 8 7 5 4 5 5 4 2 1 1 0 0 0 0 0 0 0 0 0 0 0 0 0 0 0 0 1 3 2 0 0 0 0 0 0 0 0 0 0 0 0
4 4 5 5 4 4 6 6 4 2 3 2 1 0 0 0 0 0 0 0 0 0 0 0 0 0 0 0 0 1 0 0 0 0 0 0 0 0 0 0 0 0 0
3 2 4 5 3 4 7 8 5 3 3 2 1 0 0 0 0 0 0 0 0 0 0 0 0 0 0 0 0 0 0 0 0 0 0 0 0 0 0 0 0 0 0
3 3 5 6 5 4 7 8 6 4 3 1 0 0 0 0 0 0 0 0 0 0 0 0 0 0 0 0 0 0 0 0 0 0 0 0 0 0 0 0 0 0 0
4 4 5 6 5 5 7 8 7 6 3 1 0 0 0 0 0 0 0 0 0 0 0 0 0 0 0 0 0 0 0 0 0 0 0 0 0 0 0 0 0 0 0
3 2 3 3 4 5 7 8 8 7 3 1 0 1 1 0 0 0 0 0 0 0 0 0 0 0 0 0 0 0 0 0 0 0 0 0 0 0 0 0 0 0 0
1 1 1 1 2 3 5 7 9 7 2 0 1 3 2 1 0 0 0 0 0 0 0 0 0 0 0 0 0 0 0 0 0 0 0 0 0 0 0 0 0 0 0
0 0 0 0 0 1 3 5 6 4 1 1 2 3 2 1 0 0 0 0 0 0 0 0 0 0 0 0 0 0 0 0 0 0 0 0 0 0 0 0 0 0 0
0 0 0 0 0 0 1 2 2 1 1 2 2 2 1 1 0 0 0 0 0 0 0 0 0 0 0 0 0 0 0 0 0 0 0 0 0 0 0 0 0 0 0
0 0 0 0 0 0 0 0 0 0 0 2 2 2 1 0 0 0 0 0 0 0 0 0 0 0 0 0 0 0 0 0 0 0 0 0 0 0 0 0 0 0 0
0 0 0 0 1 1 0 0 0 0 1 3 3 2 1 1 0 0 0 0 0 0 0 0 0 0 0 0 0 0 0 0 0 0 0 0 0 0 0 0 0 0 0
0 0 1 1 1 1 0 0 0 1 2 3 3 2 1 1 1 0 0 0 0 0 0 0 0 0 0 0 0 0 0 0 0 0 0 0 0 0 0 0 0 0 0
0 0 1 1 1 0 0 0 1 2 2 1 1 1 0 0 0 0 0 0 0 0 0 0 0 0 0 0 0 0 0 0 0 0 0 0 0 0 0 0 0 0 0
0 0 1 1 0 0 0 0 1 1 1 0 0 0 0 0 0 0 0 0 0 0 0 0 0 0 0 0 0 0 0 0 0 0 0 0 0 0 0 0 0 0 0
0 0 0 0 0 0 0 0 0 0 0 0 0 0 0 0 0 0 0 0 0 0 0 0 0 0 0 0 0 0 0 0 0 0 0 0 0 0 0 0 0 0 0
0 0 0 0 0 0 0 0 0 0 0 0 0 0 0 0 0 0 0 0 0 0 0 0 0 0 0 0 0 0 0 0 0 0 0 0 0 0 0 0 0 0 0
0 0 0 0 0 0 0 0 0 0 0 0 0 0 0 0 0 0 0 0 0 0 0 0 0 0 0 0 0 0 0 0 0 0 0 0 0 0 0 0 0 0 0
0 0 0 0 0 0 0 0 0 0 0 0 0 0 0 0 0 0 0 0 0 0 0 0 0 0 0 0 0 0 0 0 0 0 0 0 0 0 0 0 0 0 0
0 0 0 0 0 0 0 0 0 0 0 0 0 0 0 0 0 0 0 0 0 0 0 0 0 0 0 0 0 0 0 0 0 0 0 0 0 0 0 0 0 0 0
0 0 0 0 0 0 0 0 0 0 0 0 0 0 0 0 0 0 0 0 0 0 0 0 0 0 0 0 0 0 0 0 0 0 0 0 0 0 0 0 0 0 0
0 0 0 0 0 0 0 0 0 0 0 0 0 0 0 0 0 0 0 0 0 0 0 0 0 0 0 0 0 0 0 0 0 0 0 0 0 0 0 0 0 0 0
Wind_Speed
4 4 3 3 4 5 6 5 6 6 6 5 4 4 4 4 5 7 5 9 9 7 6 6 6 6 7 7 7 7 7 7 7 7 7 7 7 6 6 6 6 5 5
4 4 4 3 3 3 3 5 5 4 3 2 2 1 2 3 4 7 7 7 9 8 7 7 7 7 7 7 7 7 7 7 7 7 7 6 6 6 5 5 4 4 3
4 5 4 3 3 3 3 3 4 3 3 3 2 2 2 2 3 6 8 6 6 7 8 8 7 7 7 7 7 7 7 7 6 7 7 6 6 5 4 4 3 2 2
5 4 4 3 4 3 3 2 2 2 2 2 2 3 2 2 3 4 6 7 7 6 7 9 8 7 7 7 8 8 7 7 7 7 7 6 5 5 4 3 3 2 2
5 3 4 4 4 3 3 3 2 2 2 1 2 2 2 3 3 3 4 6 7 8 6 8 9 8 8 8 8 8 8 8 7 7 6 6 5 5 4 4 3 2 1
5 4 4 4 4 3 3 3 2 2 1 2 2 2 2 2 3 2 3 3 5 8 9 8 6 6 9 9 9 9 9 9 8 7 7 6 5 5 5 4 3 2 1
5 5 4 4 4 4 4 4 3 2 2 1 1 1 1 2 2 3 2 2 4 6 8 10 8 6 5 9 9 9 10 9 9 8 7 6 5 5 4 4 3 2 2
4 4 5 4 5 4 4 5 4 2 2 2 2 1 1 2 2 2 2 2 2 4 5 8 7 8 8 6 8 11 10 10 9 9 8 7 6 5 4 4 3 2 2
3 3 4 4 4 5 4 5 5 5 3 3 2 3 3 3 1 2 3 3 3 2 3 3 5 7 9 7 7 10 11 9 9 9 8 7 6 6 5 4 3 2 1
3 3 4 4 4 4 5 5 5 4 5 4 2 2 2 2 2 2 2 2 3 2 2 2 3 4 5 6 8 12 13 11 9 10 9 8 7 7 6 5 4 3 2
2 2 2 2 3 3 5 5 5 5 4 4 3 2 2 1 2 2 2 2 1 1 2 2 1 1 3 5 6 10 13 12 10 10 9 9 8 7 7 6 5 4 3
2 2 2 1 2 2 4 4 5 6 5 5 4 3 3 3 3 3 3 2 2 1 1 1 1 2 2 4 6 12 13 12 11 10 9 8 8 8 7 6 5 4 4
2 3 2 2 2 2 3 4 4 5 5 5 5 4 4 4 2 3 3 2 1 1 1 1 1 2 2 3 3 10 11 11 10 9 9 8 7 6 6 6 5 4 4
3 3 3 2 2 2 2 3 3 4 4 4 5 4 3 3 2 3 3 3 2 1 1 2 0 1 2 3 5 7 6 11 10 9 8 8 7 6 5 5 5 4 3
4 4 3 2 1 1 1 3 3 3 3 4 4 4 3 3 3 3 2 3 4 3 3 2 1 1 2 2 5 4 3 8 9 8 7 7 6 6 5 4 3 2 1
5 4 4 3 3 1 0 1 2 2 3 3 3 4 4 3 3 3 3 3 3 3 2 2 2 1 2 3 5 3 3 6 8 7 7 7 6 5 5 4 4 3 2
6 5 5 4 3 2 1 1 1 2 2 2 2 3 3 3 3 3 3 3 3 3 3 1 1 2 2 2 2 2 3 4 4 7 7 6 6 5 4 4 3 3 2
6 6 5 4 4 4 3 2 1 2 2 2 2 2 2 2 3 3 3 3 3 3 3 2 2 2 2 3 3 3 4 5 4 7 8 7 6 5 5 4 3 2 2
7 7 7 6 6 5 4 4 2 1 2 2 3 3 3 3 2 2 3 3 2 3 2 3 2 2 2 2 3 3 4 3 5 7 8 7 7 6 6 5 4 4 3
8 8 8 8 7 6 7 6 4 3 3 3 2 3 3 3 2 2 2 3 2 3 3 3 3 2 2 2 3 3 3 2 3 5 5 6 8 8 8 7 6 6 5
9 8 8 8 7 7 8 8 6 6 5 6 5 5 4 5 5 3 3 2 2 2 3 3 3 2 2 2 2 2 4 4 4 3 4 4 5 5 5 7 8 8 7
8 8 8 8 9 9 12 12 8 5 5 5 5 4 5 6 7 8 8 6 5 4 3 3 3 3 3 3 3 3 4 4 3 2 4 5 5 5 5 4 7 10 9
7 7 7 7 8 10 14 13 11 5 5 5 5 4 4 6 6 4 6 8 8 8 5 3 4 4 3 3 4 4 3 3 3 3 5 4 4 5 4 6 10 11 11
5 5 6 7 7 11 16 13 9 5 5 5 5 6 5 6 6 5 5 7 7 7 6 5 5 4 4 3 3 4 5 5 4 3 4 4 3 3 5 4 9 11 11
5 5 5 6 7 9 16 14 10 4 4 6 6 7 7 7 10 8 6 7 6 5 8 10 9 9 9 9 6 4 4 4 4 2 2 3 3 3 3 3 5 10 10
4 4 5 6 7 7 14 16 12 4 5 5 6 7 11 9 10 8 5 5 6 4 4 5 6 6 6 7 7 4 3 4 3 2 1 3 3 3 3 2 2 2 5
Wind_Direction
216 229 227 195 197 196 192 198 208 228 219 226 212 201 174 165 141 128 136 148 147 156 161 162 156 153 154 150 147 144 140 139 136 135 133 131 128 125 123 121 117 115 110
216 221 224 215 205 221 204 190 205 235 224 218 216 169 133 142 147 136 144 152 155 159 164 167 166 164 163 162 157 152 150 149 147 144 140 137 133 129 126 128 125 121 119
238 228 220 213 205 219 229 208 214 221 211 200 194 197 187 171 166 150 153 158 160 166 167 166 167 169 168 167 164 160 158 157 156 155 152 147 142 140 140 138 136 135 129
249 246 225 217 214 212 213 201 217 217 206 201 191 191 199 173 198 170 164 161 162 167 171 170 168 170 171 170 170 167 163 160 159 159 157 154 154 154 154 155 157 162 159
249 239 235 226 217 211 202 203 194 201 197 201 213 193 192 173 197 198 187 173 161 158 163 170 168 169 172 175 175 173 171 169 168 167 165 163 165 164 162 160 157 158 164
247 227 228 226 221 209 197 192 187 202 186 182 230 214 190 186 187 205 212 176 166 167 159 163 166 178 182 180 180 179 179 178 177 177 176 173 171 172 172 172 174 175 189
249 229 221 216 219 213 203 194 188 194 205 175 203 308 283 222 211 195 210 197 188 166 158 168 177 170 179 187 184 184 185 184 183 182 182 180 175 174 177 182 187 194 204
249 241 228 217 210 212 209 195 185 176 205 192 167 161 290 306 294 212 197 218 214 169 173 181 177 168 171 170 187 186 187 187 187 186 185 186 183 180 179 185 196 211 234
258 242 239 229 216 206 208 202 191 180 192 212 189 162 169 210 251 277 211 206 212 196 191 191 182 174 170 170 171 185 182 184 189 189 188 185 183 184 188 190 196 203 213
279 256 245 228 220 209 202 202 196 189 183 205 210 191 184 156 163 252 271 223 202 185 206 211 204 180 161 156 167 174 178 180 186 191 192 190 189 191 193 196 196 199 204
299 287 267 239 222 212 202 196 195 194 192 197 193 182 195 208 201 185 240 276 316 230 223 213 187 136 131 147 158 169 176 178 184 193 198 197 196 197 197 199 203 208 214
311 320 305 272 238 225 209 197 194 192 193 194 194 194 183 181 194 191 209 219 218 249 263 258 188 127 127 129 158 167 177 181 185 191 198 201 202 201 202 204 208 214 217
327 321 314 280 253 236 211 194 191 190 193 192 192 199 196 196 185 185 192 194 188 220 239 257 226 154 140 129 136 161 176 182 187 192 196 197 201 204 209 213 215 219 222
331 328 327 301 267 233 206 189 191 192 195 198 197 192 185 182 183 183 175 164 173 209 215 221 224 156 137 131 146 161 178 183 186 191 192 193 195 200 204 213 218 225 228
345 353 352 344 321 249 197 183 187 189 187 194 197 190 178 173 181 186 179 171 170 185 214 208 192 164 132 127 150 172 165 181 183 185 186 188 191 196 196 197 192 189 182
356 357 4 10 9 12 131 149 155 171 169 179 182 180 178 176 177 181 181 183 182 174 193 196 184 168 157 151 158 163 157 163 169 172 178 182 185 189 189 182 171 168 171
3 6 11 12 12 18 30 88 115 132 149 153 154 169 179 173 172 179 178 185 185 171 182 194 156 159 148 151 156 163 148 138 147 164 163 163 160 164 165 163 157 160 177
7 10 14 17 27 33 35 51 89 125 138 148 142 133 155 163 170 171 174 181 178 179 172 171 148 150 163 159 161 161 150 141 139 152 153 149 142 139 138 136 135 134 136
14 17 18 24 28 26 25 19 39 87 133 145 135 137 138 138 152 159 162 155 161 163 149 148 146 146 141 143 140 130 124 119 135 140 141 134 126 121 121 114 107 99 90
19 21 23 28 28 31 30 20 23 44 68 79 97 103 109 124 125 126 131 133 139 139 138 135 139 134 123 123 122 124 116 109 111 122 117 118 112 103 95 91 89 84 78
22 23 26 29 29 33 29 23 21 43 53 56 56 64 74 86 85 87 102 107 116 120 129 134 136 125 124 124 132 130 121 110 88 99 105 108 102 87 79 72 72 72 70
22 27 29 30 34 32 23 26 26 41 52 58 61 61 69 76 78 79 85 91 95 103 118 122 128 130 131 129 125 128 128 125 111 102 101 92 88 82 73 69 71 73 69
25 30 30 30 36 30 26 24 24 43 54 54 54 54 59 65 67 80 85 79 65 62 83 107 108 113 122 132 127 123 125 115 116 132 109 95 88 86 76 71 78 77 72
29 30 30 28 34 28 25 23 24 47 55 57 54 53 59 56 48 60 82 78 68 50 58 75 84 82 80 83 103 121 124 109 98 106 110 107 109 98 91 74 78 81 76
26 29 30 33 35 27 23 25 30 49 56 62 61 57 56 53 39 57 86 93 87 75 72 83 90 92 81 73 82 97 110 118 116 114 98 108 126 115 104 90 82 83 80
23 33 40 42 40 34 28 29 31 45 54 58 63 58 49 46 41 54 77 93 93 94 97 92 84 81 80 74 73 86 105 121 123 114 104 109 143 138 119 108 117 105 83